Regional Weather Roundup
Issued by NWS Green Bay, WI

Home | Current Version | Previous Version | Text Only | Print | Product List | Glossary On
Versions: 1 2 3 4 5 6 7 8 9 10 11 12 13 14 15 16 17 18 19 20 21 22 23 24 25 26 27 28 29 30 31 32 33 34 35 36 37 38 39 40 41 42 43 44 45 46 47 48 49 50
000
ASUS43 KGRB 231310
RWRGRB

NORTH-CENTRAL AND NORTHEAST WISCONSIN REGIONAL WEATHER ROUNDUP
NATIONAL WEATHER SERVICE GREEN BAY WI
800 AM CDT SAT AUG 23 2014

WIZ005-009-010>012-018-019-231400-
NORTH CENTRAL WISCONSIN

CITY           SKY/WX    TMP DP  RH WIND       PRES   REMARKS
IRONWOOD       NOT AVBL
MANITOWISH WTR CLOUDY    64  64 100 CALM      30.05S FOG
ARBOR VITAE    CLOUDY    69  67  93 CALM      30.05R
EAGLE RIVER    CLOUDY    67  67 100 CALM      30.05R
LAND O LAKES   FOG       65  65 100 CALM      30.06F VSB 1/2
RHINELANDER    CLOUDY    69  68  96 CALM      30.05S FOG
PHILLIPS       CLOUDY    65  65 100 NE3       30.04R FOG
ANTIGO         FOG       67  67 100 E5        30.05R VSB 3/4
TOMAHAWK       CLOUDY    68  67  97 CALM      30.05R FOG
MERRILL        CLOUDY    69  69 100 SE3       30.03R FOG
$$

WIZ013-073-231400-
NORTHEAST WISCONSIN

CITY           SKY/WX    TMP DP  RH WIND       PRES   REMARKS
IRON MOUNTAIN  CLOUDY    68  66  93 CALM      30.03F FOG
MARINETTE      CLOUDY    70  66  88 SE6       30.02R
OCONTO         CLOUDY    69  69 100 E3        30.01S
$$

WIZ017-030-035>037-045-231400-
CENTRAL WISCONSIN

CITY           SKY/WX    TMP DP  RH WIND       PRES   REMARKS
MEDFORD        FOG       68  68 100 NE5       30.02F VSB 1/4
WAUSAU         FOG       70  69  97 E5        30.01R VSB 1/2
MOSINEE        FOG       70  70 100 E3        30.02S VSB 1/4
MARSHFIELD     FOG       71  70  96 E6        30.00F VSB 1/2
WISC RAPIDS    FOG       71  70  96 E7        30.00F VSB 1/2
STEVENS POINT  DRZL/FOG  68  68 100 E6        30.01F VSB 3/4
WAUPACA        FOG       72  70  95 CALM      30.01R VSB 1/4
SHAWANO        FOG       70  68  93 NE5       30.03R VSB 1/2
CLINTONVILLE   FOG       68  68 100 E5        30.01R VSB 1/4
$$

WIZ038-039-048-051-231400-
FOX VALLEY

CITY           SKY/WX    TMP DP  RH WIND       PRES   REMARKS
NWS GREEN BAY  CLOUDY    70  68  93 E5        30.02R FOG
APPLETON       FOG       70  68  94 VRB3      30.03R VSB 1/4
OSHKOSH        CLOUDY    73  71  93 S3        30.00R FOG
FOND DU LAC    CLOUDY    71  69  93 S7        30.01R FOG
$$

WIZ022-050-052-231400-
EAST CENTRAL WISCONSIN

CITY           SKY/WX    TMP DP  RH WIND       PRES   REMARKS
STURGEON BAY   MOSUNNY   68  64  88 E8        30.04R
MANITOWOC      CLOUDY    70  69  97 SE7       30.02R
SHEBOYGAN      CLOUDY    70  68  93 S5        30.03R
$$

LMZ563-521-522-541>543-231400-
LAKESHORE

STATION/POSITION TIME  TEMP    WIND        PRES    VSBY  WAVE
                       AIR SEA DIR/SP/G                  HT/PER
                 (UTC) (F)     (DEG/KT/KT) (MB)    (MI)  (FT/S)
SHEBOYGAN LKSHOR 1300   68 65  190/  3/  4 1017.1R
KEWAUNEE LKSHORE 1300   69     120/  3/  4 1015.6R
ALGOMA MARINA    1200          150/  3/  5   N/A
NORTHPORT PIER   1300   67     130/  5/  5 1016.9S
N MID LAKE BUOY  1300   67 65  120/  8/  8 1016.9R         0
S GREEN BAY BUOY 1300   70     VRB  4      1017.3R
SISTER BAY LKSHO 1300   69     160/  9/ 11   N/A
CHAMBERS ISLAND  1300   69     100/  5/  8 1016.9R
MENOMINEE LKSHOR 1300   69     100/  7/  8 1017.1R
$$


USA.gov is the U.S. government's official web portal to all federal, state and local government web resources and services.